1488495601.19,56681,8.81,72666.0,-11.61,-13.01,-13.01,0,*6B
1488495602.41,56682,8.81,72680.8,-11.65,-12.97,-12.97,0,*6C
1488495603.62,56683,8.81,72696.5,-11.61,-12.89,-12.89,0,*69
1488495604.89,56684,8.81,72702.5,-11.61,-12.79,-12.79,0,*6E
1488495606.16,56685,8.81,72702.3,-11.61,-12.75,-12.75,0,*6F
1488495607.43,56686,8.81,72704.5,-11.61,-12.65,-12.75,0,*6D
1488495608.69,56687,8.81,72706.8,-11.61,-12.65,-12.65,0,*6D
1488495609.95,56688,8.81,72708.0,-11.61,-12.65,-12.75,0,*63
1488495611.21,56689,8.81,72706.0,-11.61,-12.75,-12.65,0,*62
1488495612.51,56690,8.81,72700.0,-11.59,-12.71,-12.71,0,*60
1488495613.8,56691,8.81,72708.0,-11.59,-12.61,-12.61,0,*61
1488495615.07,56692,8.81,72708.8,-11.61,-12.65,-12.75,0,*68
1488495616.36,56693,8.81,72710.0,-11.59,-12.71,-12.71,0,*63
1488495617.66,56694,8.81,72708.5,-11.59,-12.71,-12.71,0,*64
1488495618.96,56695,8.81,72718.8,-11.59,-12.71,-12.71,0,*65
1488495620.24,56696,8.81,72712.0,-11.59,-12.83,-12.83,0,*66
1488495621.53,56697,8.81,72726.5,-11.59,-12.83,-12.83,0,*67
1488495622.8,56698,8.81,72718.0,-11.59,-12.89,-12.83,0,*62
1488495624.06,56699,8.81,72712.0,-11.59,-12.97,-13.01,0,*67
1488495625.27,56700,8.81,72706.3,-11.61,-13.07,-13.07,0,*63
1488495626.53,56701,8.81,72716.5,-11.59,-13.11,-13.01,0,*68
1488495627.76,56702,8.81,72708.0,-11.59,-13.15,-13.11,0,*6E
1488495629.0,56703,8.81,72702.5,-11.59,-13.11,-13.11,0,*6B
1488495630.24,56704,8.81,72692.0,-11.59,-12.89,-12.89,0,*6C
1488495631.54,56705,8.81,72682.5,-11.59,-12.75,-12.75,0,*6D
1488495632.83,56706,8.81,72672.5,-11.59,-12.83,-12.75,0,*67
1488495634.09,56707,8.81,72678.3,-11.59,-12.83,-12.89,0,*65
1488495635.39,56708,8.81,72686.3,-11.59,-12.75,-12.83,0,*69
1488495636.68,56709,8.81,72668.0,-11.59,-12.75,-12.75,0,*61
1488495637.95,56710,8.81,72686.8,-11.57,-12.75,-12.75,0,*67
1488495639.25,56711,8.81,72688.5,-11.59,-12.75,-12.75,0,*68
1488495640.55,56712,8.81,72692.5,-11.59,-12.71,-12.71,0,*6B
1488495641.82,56713,8.81,72682.5,-11.57,-12.71,-12.71,0,*64
1488495643.09,56714,8.81,72698.5,-11.57,-12.71,-12.71,0,*63
1488495644.36,56715,8.81,72698.3,-11.57,-12.75,-12.71,0,*66
1488495645.63,56716,8.81,72690.0,-11.57,-12.71,-12.71,0,*61
1488495646.89,56717,8.81,72724.0,-11.57,-12.61,-12.75,0,*65
1488495648.18,56718,8.81,72716.0,-11.55,-12.65,-12.57,0,*6C
1488495649.48,56719,8.81,72712.5,-11.55,-12.65,-12.71,0,*69
1488495650.75,56720,8.81,72722.3,-11.57,-12.71,-12.75,0,*60
1488495652.01,56721,8.81,72718.8,-11.57,-12.61,-12.71,0,*64
1488495653.28,56722,8.81,72720.0,-11.57,-12.61,-12.71,0,*67
1488495654.57,56723,8.81,72720.5,-11.55,-12.71,-12.79,0,*6D
1488495655.87,56724,8.81,72714.0,-11.55,-12.79,-12.79,0,*62
1488495657.08,56725,8.81,72686.3,-11.57,-12.89,-12.93,0,*6A
1488495658.3,56726,8.81,72690.8,-11.57,-12.89,-12.97,0,*6D
1488495659.59,56727,8.81,72718.0,-11.55,-12.71,-12.83,0,*6C
1488495660.88,56728,8.81,72724.5,-11.55,-12.71,-12.83,0,*63
1488495662.12,56729,8.81,72726.3,-11.57,-12.75,-12.89,0,*6E
1488495663.38,56730,8.81,72722.0,-11.55,-12.83,-12.97,0,*62
1488495664.63,56731,8.81,72724.0,-11.55,-13.11,-13.19,0,*6E
1488495665.87,56732,8.81,72722.0,-11.57,-13.37,-13.23,0,*62
1488495667.14,56733,8.81,72702.5,-11.55,-13.33,-13.19,0,*6C
1488495668.41,56734,8.81,72720.0,-11.55,-13.33,-13.19,0,*6B
1488495669.65,56735,8.81,72730.5,-11.57,-13.29,-13.23,0,*6A
1488495670.9,56736,8.81,72706.0,-11.55,-13.19,-12.97,0,*66
1488495672.14,56737,8.81,72714.3,-11.55,-13.19,-13.07,0,*6F
1488495673.35,56738,8.81,72716.5,-11.57,-13.15,-13.23,0,*68
1488495674.59,56739,8.81,72670.3,-11.55,-13.07,-13.11,0,*69
1488495675.8,56740,8.81,72658.5,-11.57,-13.11,-13.15,0,*66
1488495677.0,56741,8.81,72648.3,-11.57,-13.11,-13.15,0,*67
1488495678.21,56742,8.81,72646.0,-11.57,-13.15,-13.23,0,*65
1488495679.45,56743,8.81,72680.3,-11.57,-13.01,-13.11,0,*60
1488495680.67,56744,8.81,72684.8,-11.57,-12.89,-12.97,0,*69
1488495681.91,56745,8.81,72680.5,-11.57,-12.75,-12.89,0,*64
1488495683.18,56746,8.81,72692.8,-11.55,-12.79,-12.93,0,*62
1488495684.39,56747,8.81,72688.3,-11.57,-12.97,-13.11,0,*6A
1488495685.62,56748,8.81,72702.3,-11.57,-12.89,-13.01,0,*6B
1488495686.86,56749,8.81,72728.3,-11.57,-12.83,-13.11,0,*61
1488495688.1,56750,8.81,72728.3,-11.57,-12.71,-13.11,0,*64
1488495689.31,56751,8.81,72720.0,-11.57,-12.97,-13.23,0,*6C
1488495690.54,56752,8.81,72726.5,-11.57,-13.15,-13.29,0,*6E
1488495691.78,56753,8.81,72734.0,-11.57,-13.23,-13.29,0,*6A
1488495693.02,56754,8.81,72744.0,-11.57,-13.23,-13.37,0,*62
1488495694.22,56755,8.81,72744.3,-11.57,-13.15,-13.47,0,*61
1488495695.46,56756,8.81,72730.0,-11.55,-13.23,-13.69,0,*69
1488495696.69,56757,8.81,72724.0,-11.55,-13.43,-14.11,0,*66
1488495697.96,56758,8.81,72730.3,-11.57,-13.83,-14.43,0,*60
1488495699.2,56759,8.81,72732.0,-11.57,-14.05,-14.33,0,*6F
1488495700.47,56760,8.81,72730.0,-11.57,-13.97,-14.43,0,*6E
1488495701.73,56761,8.81,72730.8,-11.51,-13.93,-14.83,0,*61
1488495702.98,56762,8.81,72728.0,-11.55,-14.19,-15.53,0,*6F
1488495704.25,56763,8.81,72710.8,-11.55,-14.93,-16.59,0,*65
1488495705.51,56764,8.81,72714.5,-11.55,-15.85,-17.73,0,*6D
1488495706.75,56765,8.81,72718.3,-11.57,-17.21,-19.47,0,*6B
1488495708.02,56766,8.81,72722.0,-11.55,-18.59,-20.63,0,*66
1488495709.25,56767,8.81,72724.5,-11.57,-19.81,-21.77,0,*65
1488495710.52,56768,8.81,72726.3,-11.57,-20.99,-21.67,0,*68
1488495711.72,56769,8.81,72714.8,-11.57,-20.29,-20.05,0,*67
1488495712.95,56770,8.81,72712.3,-11.57,-20.39,-20.39,0,*61
1488495714.16,56771,8.81,72702.5,-11.57,-21.09,-20.39,0,*62
1488495715.38,56772,8.81,72710.8,-11.57,-22.11,-20.59,0,*6D
1488495716.62,56773,8.81,72714.3,-11.57,-25.19,-20.99,0,*6F
1488495717.83,56774,8.81,72710.8,-11.57,-25.49,-19.75,0,*65
1488495719.11,56775,8.81,72706.0,-11.59,-24.11,-17.83,0,*61
1488495720.38,56776,8.81,72712.0,-11.59,-22.77,-16.75,0,*6C
1488495721.67,56777,8.81,72708.0,-11.59,-21.33,-15.85,0,*62
1488495722.92,56778,8.81,72710.5,-11.61,-19.37,-15.21,0,*67
1488495724.18,56779,8.81,72704.5,-11.59,-18.07,-14.75,0,*6F
1488495725.4,56780,8.81,72702.0,-11.61,-16.79,-14.37,0,*63
1488495726.61,56781,8.81,72698.3,-11.61,-15.53,-14.37,0,*69
1488495727.84,56782,8.81,72692.8,-11.61,-15.01,-14.37,0,*6D
1488495729.08,56783,8.81,72694.5,-11.61,-14.65,-14.51,0,*6F
1488495730.35,56784,8.81,72692.3,-11.59,-14.55,-14.61,0,*63
1488495731.62,56785,8.81,72686.8,-11.61,-14.47,-14.79,0,*63
1488495732.84,56786,8.81,72688.0,-11.61,-14.33,-15.07,0,*6B
1488495734.08,56787,8.81,72680.5,-11.61,-14.61,-15.81,0,*63
1488495735.34,56788,8.81,72694.5,-11.61,-14.93,-16.27,0,*6E
1488495736.57,56789,8.81,72688.5,-11.59,-15.49,-16.89,0,*66
1488495737.83,56790,8.81,72692.3,-11.61,-16.23,-17.25,0,*6D
1488495739.05,56791,8.81,72690.3,-11.61,-16.55,-16.93,0,*61
1488495740.26,56792,8.81,72666.5,-11.61,-16.97,-16.41,0,*63
1488495741.48,56793,8.81,72670.8,-11.61,-16.83,-16.03,0,*61
1488495742.69,56794,8.81,72672.5,-11.65,-16.97,-15.99,0,*67
1488495743.92,56795,8.81,72682.8,-11.65,-16.89,-15.53,0,*6F
1488495745.19,56796,8.81,72666.8,-11.67,-16.55,-15.21,0,*6A
1488495746.46,56797,8.81,72684.8,-11.65,-15.85,-14.79,0,*6B
1488495747.7,56798,8.81,72672.5,-11.65,-15.25,-14.51,0,*64
1488495748.97,56799,8.81,72664.0,-11.67,-15.39,-14.65,0,*6D
1488495750.21,56800,8.81,72666.8,-11.67,-15.53,-14.65,0,*6E
1488495751.5,56801,8.81,72676.5,-11.67,-15.57,-14.55,0,*68
1488495752.74,56802,8.81,72666.5,-11.65,-15.67,-14.43,0,*6D
1488495753.98,56803,8.81,72690.5,-11.65,-15.85,-14.19,0,*6F
1488495755.21,56804,8.81,72692.5,-11.65,-15.81,-14.11,0,*64
1488495756.46,56805,8.81,72696.0,-11.65,-15.53,-13.97,0,*63
1488495757.69,56806,8.81,72680.5,-11.65,-15.21,-13.65,0,*68
1488495758.96,56807,8.81,72678.5,-11.67,-14.51,-13.65,0,*6D
1488495760.18,56808,8.81,72672.5,-11.65,-14.23,-13.51,0,*62
1488495761.42,56809,8.81,72664.0,-11.65,-14.05,-13.47,0,*60
1488495762.65,56810,8.81,72664.8,-11.67,-13.93,-13.47,0,*62
1488495763.92,56811,8.81,72674.0,-11.67,-13.69,-13.37,0,*61
1488495765.19,56812,8.81,72684.0,-11.67,-13.51,-13.37,0,*69
1488495766.42,56813,8.81,72686.3,-11.65,-13.47,-13.37,0,*6D
1488495767.69,56814,8.81,72686.8,-11.67,-13.37,-13.23,0,*6A
1488495768.91,56815,8.81,72672.3,-11.65,-13.23,-13.23,0,*6C
1488495770.13,56816,8.81,72672.3,-11.65,-13.23,-13.23,0,*6F
1488495771.37,56817,8.81,72684.5,-11.67,-13.19,-13.23,0,*65
1488495772.59,56818,8.81,72684.5,-11.65,-13.19,-13.23,0,*68
1488495773.81,56819,8.81,72680.8,-11.65,-13.11,-13.11,0,*60
1488495775.03,56820,8.81,72672.8,-11.65,-12.97,-12.97,0,*6A
1488495776.25,56821,8.81,72672.5,-11.65,-12.93,-12.97,0,*6F
1488495777.47,56822,8.81,72686.5,-11.65,-12.93,-12.97,0,*6C
1488495778.68,56823,8.81,72684.0,-11.65,-12.93,-13.07,0,*65
1488495779.92,56824,8.81,72686.8,-11.61,-13.01,-13.15,0,*6F
1488495781.14,56825,8.81,72690.0,-11.65,-12.97,-13.11,0,*60
1488495782.39,56826,8.81,72692.3,-11.67,-12.97,-13.19,0,*69
1488495783.63,56827,8.81,72694.0,-11.67,-12.93,-13.11,0,*64
1488495784.87,56828,8.81,72694.3,-11.65,-12.93,-13.33,0,*69
1488495786.09,56829,8.81,72682.3,-11.65,-13.07,-13.65,0,*67
1488495787.3,56830,8.81,72658.8,-11.65,-13.07,-14.33,0,*6B
1488495788.54,56831,8.81,72690.5,-11.61,-13.19,-15.01,0,*61
1488495789.79,56832,8.81,72702.3,-11.61,-13.51,-16.17,0,*6A
1488495791.07,56833,8.81,72716.3,-11.61,-14.01,-17.45,0,*6F
1488495792.32,56834,8.81,72714.3,-11.61,-14.75,-18.89,0,*64
1488495793.57,56835,8.81,72724.0,-11.59,-15.71,-20.59,0,*6D
1488495794.78,56836,8.81,72720.3,-11.61,-16.79,-22.83,0,*6B
1488495796.02,56837,8.81,72746.0,-11.61,-18.59,-24.77,0,*6B
1488495797.28,56838,8.81,72720.5,-11.65,-20.79,-27.23,0,*6B
1488495798.52,56839,8.81,72708.5,-11.65,-23.23,-28.53,0,*6E
1488495799.79,56840,8.81,72694.3,-11.65,-25.29,-29.35,0,*6D
1488495801.03,56841,8.81,72678.3,-11.65,-26.61,-29.17,0,*63
1488495802.29,56842,8.81,72700.0,-11.67,-27.23,-28.85,0,*6F
1488495803.56,56843,8.81,72678.0,-11.67,-28.09,-28.97,0,*6A
1488495804.85,56844,8.81,72682.3,-11.67,-28.79,-28.43,0,*63
1488495806.14,56845,8.81,72684.3,-11.67,-29.01,-27.61,0,*63
1488495807.39,56846,8.81,72676.0,-11.69,-29.35,-26.87,0,*60
1488495808.69,56847,8.81,72682.0,-11.71,-28.59,-25.29,0,*64
1488495809.96,56848,8.81,72650.8,-11.71,-27.55,-22.73,0,*60
1488495811.24,56849,8.81,72662.0,-11.71,-24.83,-20.59,0,*63
1488495812.49,56850,8.81,72660.5,-11.71,-23.59,-19.47,0,*6E
1488495813.74,56851,8.81,72670.8,-11.71,-22.93,-18.21,0,*69
1488495815.02,56852,8.81,72682.0,-11.71,-22.17,-17.69,0,*65
1488495816.31,56853,8.81,72676.8,-11.71,-21.03,-17.17,0,*6B
1488495817.55,56854,8.81,72664.5,-11.71,-20.05,-16.37,0,*68
1488495818.8,56855,8.81,72676.3,-11.71,-18.83,-15.63,0,*6E
1488495820.08,56856,8.81,72682.3,-11.71,-17.41,-14.89,0,*69
1488495821.33,56857,8.81,72666.3,-11.71,-16.45,-14.61,0,*6B
1488495822.57,56858,8.81,72662.5,-11.69,-15.49,-14.55,0,*65
1488495823.82,56859,8.81,72656.0,-11.71,-15.15,-14.37,0,*60
1488495825.07,56860,8.81,72666.8,-11.73,-14.75,-14.19,0,*63
1488495826.34,56861,8.81,72648.3,-11.73,-14.43,-14.15,0,*6B
1488495827.61,56862,8.81,72674.3,-11.73,-14.33,-14.01,0,*6A
1488495828.9,56863,8.81,72680.5,-11.73,-14.05,-13.79,0,*66
1488495830.18,56864,8.81,72674.0,-11.73,-13.87,-13.79,0,*6C
1488495831.41,56865,8.81,72676.3,-11.73,-13.73,-13.93,0,*62
1488495832.68,56866,8.81,72658.5,-11.71,-13.87,-14.15,0,*61
1488495833.96,56867,8.81,72644.0,-11.71,-14.01,-14.37,0,*69
1488495835.24,56868,8.81,72670.3,-11.71,-14.11,-14.55,0,*63
1488495836.49,56869,8.81,72662.5,-11.71,-14.37,-15.11,0,*67
1488495837.73,56870,8.81,72656.8,-11.71,-14.69,-15.99,0,*64
1488495838.97,56871,8.81,72664.8,-11.71,-15.11,-16.89,0,*69
1488495840.23,56872,8.81,72684.5,-11.73,-16.09,-18.17,0,*6B
1488495841.48,56873,8.81,72700.0,-11.71,-16.89,-18.73,0,*62
1488495842.72,56874,8.81,72680.8,-11.71,-17.83,-18.83,0,*61
1488495843.98,56875,8.81,72698.5,-11.73,-17.97,-18.79,0,*62
1488495845.25,56876,8.81,72710.5,-11.73,-17.97,-19.71,0,*68
1488495846.53,56877,8.81,72698.0,-11.71,-18.69,-20.99,0,*69
1488495847.79,56878,8.81,72674.8,-11.73,-19.85,-21.43,0,*61
1488495849.06,56879,8.81,72652.0,-11.73,-19.95,-21.67,0,*67
1488495850.3,56880,8.81,72664.0,-11.73,-20.43,-22.37,0,*66
1488495851.54,56881,8.81,72664.3,-11.73,-20.93,-23.09,0,*66
1488495852.82,56882,8.81,72688.5,-11.73,-21.57,-24.11,0,*62
1488495854.08,56883,8.81,72656.5,-11.73,-22.63,-25.03,0,*65
1488495855.33,56884,8.81,72682.0,-11.73,-23.75,-25.61,0,*60
1488495856.6,56885,8.81,72674.5,-11.73,-24.61,-25.71,0,*62
1488495857.84,56886,8.81,72686.0,-11.75,-25.03,-25.91,0,*6C
1488495859.12,56887,8.81,72712.0,-11.73,-25.45,-26.17,0,*64
1488495860.39,56888,8.81,72714.0,-11.75,-25.45,-26.33,0,*6B
1488495861.62,56889,8.81,72686.3,-11.75,-25.61,-26.55,0,*6C
1488495862.87,56890,8.81,72666.0,-11.75,-25.87,-26.77,0,*6C
1488495864.08,56891,8.81,72680.5,-11.75,-26.23,-26.87,0,*6F
1488495865.29,56892,8.81,72692.8,-11.75,-26.39,-26.61,0,*6F
1488495866.53,56893,8.81,72700.3,-11.79,-26.23,-26.77,0,*6E
1488495867.77,56894,8.81,72704.8,-11.79,-26.39,-27.45,0,*62
1488495869.0,56895,8.81,72686.5,-11.79,-27.07,-28.15,0,*65
1488495870.24,56896,8.81,72702.5,-11.79,-27.39,-27.93,0,*6A
1488495871.45,56897,8.81,72686.0,-11.75,-27.71,-27.55,0,*61
1488495872.7,56898,8.81,72668.3,-11.75,-27.71,-26.77,0,*6F
1488495873.94,56899,8.81,72684.0,-11.79,-27.39,-25.91,0,*65
1488495875.21,56900,8.81,72678.8,-11.81,-26.81,-25.13,0,*6B
1488495876.46,56901,8.81,72684.0,-11.81,-26.49,-24.35,0,*6B
1488495877.7,56902,8.81,72668.8,-11.79,-25.97,-23.39,0,*64
1488495878.94,56903,8.81,72656.0,-11.81,-25.39,-22.37,0,*69
1488495880.18,56904,8.81,72670.3,-11.79,-24.61,-21.57,0,*60
1488495881.46,56905,8.81,72682.0,-11.79,-23.53,-20.99,0,*64
1488495882.71,56906,8.81,72688.5,-11.81,-22.83,-20.39,0,*66
1488495883.96,56907,8.81,72686.3,-11.81,-21.77,-19.75,0,*6D
1488495885.25,56908,8.81,72696.5,-11.81,-20.49,-19.41,0,*69
1488495886.52,56909,8.81,72688.8,-11.81,-19.91,-19.31,0,*60
1488495887.79,56910,8.81,72700.5,-11.81,-20.79,-20.05,0,*69
1488495889.06,56911,8.81,72664.8,-11.81,-21.23,-19.71,0,*6F
1488495890.32,56912,8.81,72702.8,-11.81,-21.57,-18.83,0,*63
1488495891.59,56913,8.81,72702.3,-11.81,-21.47,-17.93,0,*6D
1488495892.86,56914,8.81,72662.5,-11.81,-21.09,-17.11,0,*6A
1488495894.15,56915,8.81,72658.3,-11.81,-20.53,-16.27,0,*61
1488495895.41,56916,8.81,72660.5,-11.81,-19.47,-15.25,0,*6C
1488495896.66,56917,8.81,72660.3,-11.81,-18.41,-14.65,0,*6F
1488495897.93,56918,8.81,72638.8,-11.81,-17.49,-14.47,0,*67
1488495899.18,56919,8.81,72670.8,-11.81,-16.41,-14.11,0,*6C
1488495900.41,56920,8.81,72690.8,-11.75,-15.63,-13.87,0,*66
1488495901.64,56921,8.81,72692.0,-11.79,-15.07,-13.79,0,*68
1488495902.89,56922,8.81,72688.0,-11.79,-14.51,-13.69,0,*68
1488495904.13,56923,8.81,72694.3,-11.79,-14.37,-13.83,0,*6D
1488495905.4,56924,8.81,72712.8,-11.81,-14.05,-13.69,0,*68
1488495906.66,56925,8.81,72710.0,-11.81,-13.93,-13.79,0,*60
1488495907.9,56926,8.81,72700.5,-11.79,-13.93,-13.97,0,*64
1488495909.18,56927,8.81,72716.5,-11.81,-13.83,-14.19,0,*62
1488495910.43,56928,8.81,72694.0,-11.79,-13.97,-14.65,0,*64
1488495911.68,56929,8.81,72694.3,-11.79,-13.83,-15.07,0,*65
1488495912.99,56930,8.81,72686.0,-11.81,-13.97,-15.57,0,*6A
1488495914.26,56931,8.81,72662.0,-11.81,-14.11,-16.23,0,*62
1488495915.49,56932,8.81,72702.3,-11.79,-14.37,-16.83,0,*68
1488495916.72,56933,8.81,72698.0,-11.79,-14.79,-17.31,0,*6B
1488495917.94,56934,8.81,72692.8,-11.79,-15.11,-18.07,0,*69
1488495919.18,56935,8.81,72698.8,-11.79,-15.67,-18.93,0,*64
1488495920.4,56936,8.81,72686.5,-11.79,-16.55,-19.47,0,*6D
1488495921.67,56937,8.81,72714.8,-11.73,-17.07,-19.51,0,*67
1488495922.91,56938,8.81,72720.3,-11.75,-17.41,-18.79,0,*67
1488495924.14,56939,8.81,72718.5,-11.75,-17.11,-18.17,0,*6B
1488495925.41,56940,8.81,72720.5,-11.75,-17.21,-17.97,0,*61
1488495926.68,56941,8.81,72728.5,-11.75,-17.25,-17.41,0,*6F
1488495927.89,56942,8.81,72706.5,-11.75,-16.83,-16.93,0,*6F
1488495929.11,56943,8.81,72720.0,-11.75,-16.83,-16.55,0,*64
1488495930.36,56944,8.81,72720.8,-11.75,-16.23,-15.53,0,*6C
1488495931.6,56945,8.81,72726.0,-11.79,-15.49,-15.21,0,*6B
1488495932.85,56946,8.81,72718.5,-11.79,-15.35,-15.25,0,*67
1488495934.12,56947,8.81,72728.3,-11.79,-15.39,-15.81,0,*64
1488495935.34,56948,8.81,72742.0,-11.75,-15.53,-16.03,0,*62
1488495936.6,56949,8.81,72740.8,-11.81,-15.99,-16.69,0,*62
1488495937.85,56950,8.81,72734.3,-11.75,-16.55,-17.11,0,*6C
1488495939.09,56951,8.81,72722.0,-11.79,-16.97,-17.03,0,*6C
1488495940.32,56952,8.81,72704.8,-11.79,-17.49,-16.75,0,*6D
1488495941.57,56953,8.81,72710.3,-11.79,-17.59,-16.59,0,*63
1488495942.84,56954,8.81,72718.0,-11.79,-17.59,-16.13,0,*6A
1488495944.08,56955,8.81,72712.3,-11.79,-16.97,-14.93,0,*62
1488495945.32,56956,8.81,72716.3,-11.73,-15.95,-14.19,0,*68
1488495946.55,56957,8.81,72732.3,-11.75,-15.49,-13.87,0,*6E
1488495947.76,56958,8.81,72732.8,-11.75,-15.07,-13.55,0,*64
1488495949.01,56959,8.81,72724.5,-11.75,-14.51,-13.55,0,*67
1488495950.23,56960,8.81,72726.8,-11.75,-14.15,-13.55,0,*6D
1488495951.44,56961,8.81,72720.8,-11.75,-13.73,-13.47,0,*68
1488495952.65,56962,8.81,72734.0,-11.75,-13.55,-13.55,0,*6C
1488495953.86,56963,8.81,72728.5,-11.75,-13.47,-13.55,0,*6E
1488495955.07,56964,8.81,72730.3,-11.75,-13.47,-13.65,0,*6A
1488495956.31,56965,8.81,72728.0,-11.75,-13.55,-13.79,0,*65
1488495957.52,56966,8.81,72728.3,-11.75,-13.65,-13.73,0,*6F
1488495958.76,56967,8.81,72724.0,-11.75,-13.61,-13.55,0,*6E
1488495959.96,56968,8.81,72724.3,-11.75,-13.47,-13.47,0,*66
1488495961.17,56969,8.81,72732.5,-11.75,-13.47,-13.47,0,*67
1488495962.41,56970,8.81,72736.0,-11.75,-13.47,-13.61,0,*6B
1488495963.64,56971,8.81,72732.3,-11.73,-13.55,-13.73,0,*6C
1488495964.9,56972,8.81,72730.0,-11.75,-13.79,-13.87,0,*6C
1488495966.17,56973,8.81,72720.5,-11.73,-14.01,-13.73,0,*68
1488495967.46,56974,8.81,72726.5,-11.73,-13.87,-13.61,0,*65
1488495968.72,56975,8.81,72726.0,-11.73,-13.87,-13.65,0,*60
1488495970.01,56976,8.81,72734.3,-11.73,-14.05,-13.79,0,*63
1488495971.29,56977,8.81,72692.5,-11.73,-14.01,-13.79,0,*66
1488495972.52,56978,8.81,72688.3,-11.75,-14.15,-13.65,0,*67
1488495973.79,56979,8.81,72694.3,-11.73,-14.15,-13.61,0,*64
1488495975.03,56980,8.81,72700.5,-11.75,-14.01,-13.47,0,*65
1488495976.29,56981,8.81,72696.5,-11.75,-13.87,-13.29,0,*65
1488495977.54,56982,8.81,72700.0,-11.71,-13.55,-13.23,0,*67
1488495978.75,56983,8.81,72714.5,-11.75,-13.43,-13.07,0,*63
1488495980.04,56984,8.81,72716.3,-11.73,-13.29,-13.01,0,*68
1488495981.28,56985,8.81,72704.0,-11.73,-13.15,-12.93,0,*6C
1488495982.56,56986,8.81,72716.5,-11.73,-13.29,-13.01,0,*6A
1488495983.83,56987,8.81,72718.0,-11.73,-13.01,-12.89,0,*60
1488495985.1,56988,8.81,72726.3,-11.73,-12.93,-12.75,0,*66
1488495986.36,56989,8.81,72734.8,-11.73,-13.01,-12.89,0,*6E
1488495987.66,56990,8.81,72724.8,-11.71,-12.83,-12.83,0,*65
1488495988.93,56991,8.81,72730.5,-11.71,-12.89,-12.83,0,*6E
1488495990.22,56992,8.81,72732.5,-11.71,-12.83,-12.83,0,*67
1488495991.5,56993,8.81,72734.8,-11.71,-12.97,-12.75,0,*6A
1488495992.75,56994,8.81,72726.5,-11.71,-12.89,-12.89,0,*61
1488495994.0,56995,8.81,72724.5,-11.71,-12.97,-12.97,0,*60
1488495995.21,56996,8.81,72726.5,-11.69,-12.89,-12.89,0,*6A
1488495996.43,56997,8.81,72730.8,-11.69,-12.89,-12.97,0,*64
1488495997.68,56998,8.81,72726.3,-11.71,-12.89,-12.89,0,*6D
1488495998.96,56999,8.81,72724.0,-11.71,-12.75,-12.97,0,*60
1488496000.23,57000,8.81,72722.5,-11.71,-12.83,-12.89,0,*6E
1488496001.5,57001,8.81,72720.3,-11.71,-12.83,-12.89,0,*6F
1488496002.77,57002,8.81,72706.5,-11.71,-12.75,-12.89,0,*65
1488496004.08,57003,8.81,72706.8,-11.71,-12.75,-12.75,0,*67
1488496005.38,57004,8.81,72702.5,-11.71,-12.71,-12.71,0,*60
1488496006.68,57005,8.81,72692.0,-11.71,-12.75,-12.83,0,*68
1488496007.95,57006,8.81,72698.5,-11.69,-12.75,-12.75,0,*6B
1488496009.22,57007,8.81,72678.8,-11.69,-12.61,-12.75,0,*6F
1488496010.5,57008,8.81,72658.0,-11.69,-12.71,-12.71,0,*65
1488496011.79,57009,8.81,72714.8,-11.71,-12.61,-12.61,0,*6D
1488496013.05,57010,8.81,72700.8,-11.69,-12.61,-12.61,0,*6C
1488496014.32,57011,8.81,72710.5,-11.69,-12.61,-12.61,0,*6D
1488496015.61,57012,8.81,72704.0,-11.67,-12.53,-12.57,0,*64
1488496016.87,57013,8.81,72700.5,-11.69,-12.57,-12.61,0,*6A
1488496018.14,57014,8.81,72706.5,-11.69,-12.57,-12.61,0,*6D
1488496019.41,57015,8.81,72708.8,-11.69,-12.57,-12.61,0,*6C
1488496020.67,57016,8.81,72692.0,-11.69,-12.61,-12.61,0,*6A
1488496021.94,57017,8.81,72680.3,-11.69,-12.71,-12.61,0,*6A
1488496023.24,57018,8.81,72700.3,-11.67,-12.65,-12.71,0,*6F
1488496024.5,57019,8.81,72700.8,-11.69,-12.61,-12.61,0,*65
1488496025.79,57020,8.81,72704.0,-11.67,-12.57,-12.57,0,*61
1488496027.05,57021,8.75,72702.3,-11.65,-12.57,-12.65,0,*63
1488496028.34,57022,8.75,72724.0,-11.67,-12.57,-12.57,0,*63
1488496029.63,57023,8.81,72720.0,-11.67,-12.57,-12.57,0,*62
1488496030.9,57024,8.75,72710.5,-11.65,-12.57,-12.57,0,*67
1488496032.16,57025,8.81,72714.0,-11.65,-12.57,-12.65,0,*67
1488496033.43,57026,8.81,72722.3,-11.65,-12.57,-12.57,0,*65
1488496034.69,57027,8.81,72724.3,-11.65,-12.57,-12.65,0,*65
1488496035.98,57028,8.81,72732.8,-11.67,-12.57,-12.57,0,*69
1488496037.24,57029,8.81,72738.8,-11.65,-12.57,-12.57,0,*6A
1488496038.53,57030,8.81,72732.0,-11.67,-12.65,-12.57,0,*61
1488496039.82,57031,8.81,72738.3,-11.67,-12.57,-12.57,0,*61
1488496041.09,57032,8.81,72732.5,-11.65,-12.57,-12.65,0,*61
1488496042.35,57033,8.81,72738.0,-11.65,-12.57,-12.57,0,*61
1488496043.65,57034,8.75,72736.3,-11.67,-12.57,-12.79,0,*68
1488496044.89,57035,8.81,72724.0,-11.65,-12.71,-12.93,0,*6B
1488496046.16,57036,8.75,72722.3,-11.65,-12.71,-12.83,0,*69
1488496047.43,57037,8.81,72722.3,-11.65,-12.57,-12.79,0,*69
1488496048.67,57038,8.81,72726.8,-11.65,-12.65,-12.93,0,*63
1488496049.91,57039,8.81,72722.8,-11.65,-12.71,-13.07,0,*6B
1488496051.17,57040,8.75,72726.5,-11.65,-12.83,-13.33,0,*6F
1488496052.39,57041,8.81,72732.5,-11.65,-13.07,-13.51,0,*67
1488496053.63,57042,8.81,72732.5,-11.61,-13.29,-13.73,0,*6C
1488496054.86,57043,8.81,72732.8,-11.61,-13.43,-13.79,0,*6B
1488496056.07,57044,8.75,72718.3,-11.61,-13.51,-13.93,0,*6B
1488496057.32,57045,8.75,72730.0,-11.65,-13.51,-13.97,0,*6A
1488496058.56,57046,8.75,72722.8,-11.65,-13.55,-14.05,0,*61
1488496059.79,57047,8.81,72712.5,-11.65,-13.51,-14.33,0,*61
1488496061.02,57048,8.75,72716.5,-11.65,-13.79,-14.69,0,*6B
1488496062.3,57049,8.81,72718.3,-11.61,-14.05,-15.35,0,*6A
1488496063.55,57050,8.81,72730.8,-11.65,-14.97,-16.23,0,*69
1488496064.77,57051,8.75,72726.5,-11.65,-15.71,-16.41,0,*65
1488496066.02,57052,8.75,72712.3,-11.61,-15.81,-15.49,0,*66
1488496067.28,57053,8.81,72708.5,-11.61,-15.35,-14.79,0,*6A
1488496068.51,57054,8.81,72724.3,-11.61,-15.01,-14.33,0,*64
1488496069.79,57055,8.81,72726.8,-11.65,-14.51,-13.97,0,*6C
1488496071.04,57056,8.81,72734.0,-11.65,-14.19,-13.97,0,*63
1488496072.29,57057,8.81,72734.5,-11.65,-14.05,-14.23,0,*67
1488496073.53,57058,8.81,72728.8,-11.65,-14.33,-14.93,0,*66
1488496074.79,57059,8.81,72744.5,-11.65,-14.97,-15.39,0,*68
1488496076.03,57060,8.81,72740.8,-11.61,-15.35,-15.07,0,*62
1488496077.25,57061,8.75,72710.5,-11.61,-15.63,-16.03,0,*67
1488496078.47,57062,8.81,72728.5,-11.61,-16.41,-16.79,0,*6A
1488496079.7,57063,8.81,72734.0,-11.61,-17.55,-16.97,0,*6F
1488496080.94,57064,8.81,72740.8,-11.61,-18.21,-17.11,0,*6B
1488496082.21,57065,8.81,72740.5,-11.61,-18.35,-17.17,0,*69
1488496083.44,57066,8.81,72736.5,-11.61,-18.01,-16.93,0,*60
1488496084.68,57067,8.81,72740.3,-11.61,-17.25,-16.41,0,*67
1488496085.93,57068,8.81,72738.3,-11.65,-16.75,-16.09,0,*64
1488496087.2,57069,8.81,72736.3,-11.65,-16.31,-15.81,0,*66
1488496088.47,57070,8.75,72734.5,-11.65,-16.23,-15.81,0,*6D
1488496089.71,57071,8.81,72744.8,-11.65,-16.09,-15.67,0,*6C
1488496090.98,57072,8.81,72732.3,-11.67,-15.85,-15.67,0,*6A
1488496092.25,57073,8.81,72730.0,-11.67,-16.13,-15.95,0,*6A
1488496093.52,57074,8.81,72732.3,-11.65,-16.27,-15.81,0,*6D
1488496094.79,57075,8.75,72728.3,-11.67,-16.27,-15.71,0,*61
1488496096.06,57076,8.81,72720.3,-11.67,-16.59,-15.57,0,*6F
1488496097.31,57077,8.75,72718.5,-11.65,-16.83,-15.43,0,*6E
1488496098.55,57078,8.81,72732.0,-11.65,-17.31,-15.39,0,*64
1488496099.79,57079,8.75,72726.3,-11.65,-17.73,-15.21,0,*6A
1488496101.06,57080,8.75,72720.0,-11.65,-17.11,-14.79,0,*64